Hourly Weather Bolshie Zalomy

Today, 30 July, Friday

Time Temperature Precipitation Wind Pressure Humidity
00:00 +21°C° 0 mm 1 mps 737 mmHg 77%
01:00 +21°C° 0 mm 1 mps 737 mmHg 77%
02:00 +20°C° 0 mm 1 mps 737 mmHg 78%
03:00 +19°C° 0 mm 2 mps 737 mmHg 79%
04:00 +19°C° 0 mm 2 mps 737 mmHg 78%
05:00 +20°C° 0 mm 2 mps 737 mmHg 78%
06:00 +20°C° 0 mm 2 mps 736 mmHg 78%
07:00 +21°C° 0 mm 2 mps 736 mmHg 76%
08:00 +23°C° 0 mm 2 mps 736 mmHg 73%
09:00 +24°C° 0 mm 2 mps 736 mmHg 70%
10:00 +24°C° 0.1 mm 1 mps 736 mmHg 73%
11:00 +23°C° 0.1 mm 1 mps 736 mmHg 75%
12:00 +23°C° 0.1 mm 1 mps 736 mmHg 77%
13:00 +24°C° 0.3 mm 2 mps 736 mmHg 74%
14:00 +26°C° 0.3 mm 2 mps 736 mmHg 70%
15:00 +27°C° 0.3 mm 3 mps 735 mmHg 66%
16:00 +26°C° 0.3 mm 4 mps 735 mmHg 68%
17:00 +26°C° 0.3 mm 4 mps 735 mmHg 70%
18:00 +26°C° 0.3 mm 5 mps 735 mmHg 72%
19:00 +23°C° 0.1 mm 4 mps 735 mmHg 79%
20:00 +21°C° 0.1 mm 3 mps 735 mmHg 85%
21:00 +20°C° 0.1 mm 3 mps 736 mmHg 91%
22:00 +19°C° 0 mm 3 mps 736 mmHg 92%
23:00 +19°C° 0 mm 3 mps 736 mmHg 93%

Tomorrow, 31 July, Saturday

Time Temperature Precipitation Wind Pressure Humidity
00:00 +18°C° 0 mm 3 mps 736 mmHg 94%
01:00 +18°C° 0 mm 3 mps 736 mmHg 92%
02:00 +17°C° 0 mm 4 mps 736 mmHg 91%
03:00 +17°C° 0 mm 4 mps 736 mmHg 89%
04:00 +17°C° 0 mm 4 mps 736 mmHg 88%
05:00 +17°C° 0 mm 4 mps 737 mmHg 86%
06:00 +15°C° 0 mm 4 mps 737 mmHg 85%
07:00 +18°C° 0 mm 4 mps 737 mmHg 75%
08:00 +20°C° 0 mm 5 mps 737 mmHg 66%
09:00 +22°C° 0 mm 6 mps 738 mmHg 57%
10:00 +23°C° 0 mm 6 mps 738 mmHg 52%
11:00 +24°C° 0 mm 7 mps 738 mmHg 47%
12:00 +27°C° 0 mm 7 mps 738 mmHg 42%
13:00 +27°C° 0 mm 7 mps 738 mmHg 41%
14:00 +27°C° 0 mm 7 mps 738 mmHg 39%
15:00 +28°C° 0 mm 7 mps 738 mmHg 37%
16:00 +27°C° 0 mm 7 mps 738 mmHg 40%
17:00 +27°C° 0 mm 6 mps 738 mmHg 42%
18:00 +27°C° 0 mm 5 mps 738 mmHg 44%
19:00 +25°C° 0 mm 5 mps 738 mmHg 50%
20:00 +22°C° 0 mm 4 mps 739 mmHg 55%
21:00 +20°C° 0 mm 3 mps 739 mmHg 60%
22:00 +20°C° 0 mm 3 mps 739 mmHg 63%
23:00 +19°C° 0 mm 3 mps 739 mmHg 66%

Day after tomorrow, 1 August, Sunday

Time Temperature Precipitation Wind Pressure Humidity
00:00 +18°C° 0 mm 3 mps 740 mmHg 70%
01:00 +18°C° 0 mm 3 mps 740 mmHg 71%
02:00 +18°C° 0 mm 3 mps 740 mmHg 73%
03:00 +18°C° 0 mm 3 mps 740 mmHg 74%
04:00 +18°C° 0 mm 3 mps 740 mmHg 73%
05:00 +18°C° 0 mm 3 mps 740 mmHg 73%
06:00 +19°C° 0 mm 3 mps 740 mmHg 73%
07:00 +20°C° 0 mm 3 mps 740 mmHg 67%
08:00 +22°C° 0 mm 4 mps 740 mmHg 62%
09:00 +25°C° 0 mm 4 mps 740 mmHg 56%
10:00 +26°C° 0 mm 5 mps 740 mmHg 53%
11:00 +27°C° 0 mm 5 mps 740 mmHg 49%
12:00 +29°C° 0 mm 5 mps 740 mmHg 46%
13:00 +30°C° 0 mm 6 mps 740 mmHg 41%
14:00 +32°C° 0 mm 6 mps 740 mmHg 37%
15:00 +34°C° 0 mm 7 mps 739 mmHg 33%
16:00 +33°C° 0 mm 6 mps 739 mmHg 36%
17:00 +32°C° 0 mm 5 mps 739 mmHg 39%
18:00 +30°C° 0 mm 5 mps 739 mmHg 43%
19:00 +29°C° 0 mm 4 mps 739 mmHg 48%
20:00 +27°C° 0 mm 3 mps 738 mmHg 53%
21:00 +25°C° 0 mm 3 mps 738 mmHg 57%
22:00 +24°C° 0.1 mm 3 mps 738 mmHg 62%
23:00 +22°C° 0.1 mm 3 mps 738 mmHg 66%

2 August, Monday

Time Temperature Precipitation Wind Pressure Humidity
00:00 +23°C° 0.1 mm 2 mps 738 mmHg 70%
01:00 +21°C° 0.4 mm 2 mps 738 mmHg 75%
02:00 +20°C° 0.4 mm 2 mps 738 mmHg 80%
03:00 +20°C° 0.4 mm 2 mps 738 mmHg 86%
04:00 +20°C° 0.2 mm 2 mps 738 mmHg 86%
05:00 +20°C° 0.2 mm 2 mps 738 mmHg 87%
06:00 +19°C° 0.2 mm 2 mps 738 mmHg 87%
07:00 +21°C° 0 mm 2 mps 738 mmHg 82%
08:00 +24°C° 0 mm 2 mps 738 mmHg 77%
09:00 +25°C° 0 mm 3 mps 739 mmHg 72%
10:00 +27°C° 0 mm 3 mps 738 mmHg 64%
11:00 +29°C° 0 mm 3 mps 738 mmHg 57%
12:00 +30°C° 0 mm 3 mps 738 mmHg 50%
13:00 +32°C° 0 mm 4 mps 738 mmHg 46%
14:00 +33°C° 0 mm 5 mps 737 mmHg 43%
15:00 +34°C° 0 mm 5 mps 737 mmHg 39%
16:00 +33°C° 0 mm 5 mps 737 mmHg 41%
17:00 +33°C° 0 mm 5 mps 736 mmHg 44%
18:00 +32°C° 0 mm 4 mps 736 mmHg 46%
19:00 +29°C° 0.1 mm 4 mps 736 mmHg 53%
20:00 +27°C° 0.1 mm 4 mps 736 mmHg 59%
21:00 +25°C° 0.1 mm 3 mps 736 mmHg 66%
22:00 +24°C° 0.4 mm 3 mps 736 mmHg 73%
23:00 +21°C° 0.4 mm 2 mps 736 mmHg 81%

3 August, Tuesday

Time Temperature Precipitation Wind Pressure Humidity
00:00 +20°C° 0.4 mm 2 mps 736 mmHg 88%
01:00 +20°C° 0.1 mm 2 mps 736 mmHg 89%
02:00 +20°C° 0.1 mm 3 mps 736 mmHg 90%
03:00 +20°C° 0.1 mm 3 mps 735 mmHg 91%
04:00 +20°C° 1.3 mm 3 mps 736 mmHg 92%
05:00 +19°C° 1.3 mm 3 mps 736 mmHg 94%
06:00 +19°C° 1.3 mm 3 mps 736 mmHg 96%
07:00 +19°C° 0.1 mm 3 mps 736 mmHg 94%
08:00 +19°C° 0.1 mm 3 mps 737 mmHg 92%
09:00 +19°C° 0.1 mm 4 mps 737 mmHg 90%
10:00 +20°C° 0.1 mm 4 mps 738 mmHg 85%
11:00 +20°C° 0.1 mm 4 mps 738 mmHg 79%
12:00 +21°C° 0.1 mm 4 mps 739 mmHg 74%
13:00 +21°C° 0 mm 4 mps 739 mmHg 69%
14:00 +22°C° 0 mm 4 mps 739 mmHg 65%
15:00 +22°C° 0 mm 4 mps 739 mmHg 60%
16:00 +23°C° 0 mm 4 mps 740 mmHg 58%
17:00 +24°C° 0 mm 3 mps 740 mmHg 57%
18:00 +24°C° 0 mm 3 mps 740 mmHg 55%
19:00 +22°C° 0 mm 3 mps 740 mmHg 61%
20:00 +20°C° 0 mm 3 mps 741 mmHg 67%
21:00 +19°C° 0 mm 3 mps 741 mmHg 73%
22:00 +18°C° 0 mm 3 mps 742 mmHg 78%
23:00 +17°C° 0 mm 3 mps 742 mmHg 83%

4 August, Wednesday

Time Temperature Precipitation Wind Pressure Humidity
00:00 +16°C° 0 mm 3 mps 742 mmHg 88%
01:00 +15°C° 0 mm 2 mps 742 mmHg 88%
02:00 +15°C° 0 mm 2 mps 743 mmHg 89%
03:00 +15°C° 0 mm 2 mps 743 mmHg 89%
04:00 +15°C° 0 mm 2 mps 743 mmHg 88%
05:00 +15°C° 0 mm 2 mps 743 mmHg 86%
06:00 +15°C° 0 mm 2 mps 744 mmHg 84%
07:00 +17°C° 0 mm 2 mps 744 mmHg 76%
08:00 +19°C° 0 mm 2 mps 744 mmHg 67%
09:00 +21°C° 0 mm 3 mps 744 mmHg 59%
10:00 +22°C° 0 mm 3 mps 744 mmHg 53%
11:00 +24°C° 0 mm 3 mps 745 mmHg 48%
12:00 +25°C° 0 mm 4 mps 745 mmHg 42%
13:00 +25°C° 0 mm 3 mps 745 mmHg 43%
14:00 +25°C° 0 mm 3 mps 745 mmHg 45%
15:00 +24°C° 0 mm 3 mps 745 mmHg 46%
16:00 +24°C° 0 mm 3 mps 745 mmHg 49%
17:00 +24°C° 0 mm 2 mps 745 mmHg 52%
18:00 +23°C° 0 mm 2 mps 745 mmHg 55%
19:00 +22°C° 0 mm 1 mps 746 mmHg 58%
20:00 +21°C° 0 mm 1 mps 746 mmHg 61%
21:00 +20°C° 0 mm 1 mps 746 mmHg 64%
22:00 +19°C° 0 mm 1 mps 746 mmHg 67%
23:00 +18°C° 0 mm 1 mps 746 mmHg 70%
Show more

We Need Your Consent

Meteoprog and our Service Providers may store and access personal data such as cookies, device identifiers or other similar technologies on your device and process such data to personalise content and ads, as well as provide social media features and to analyse the traffic.

  • Store and/or access information on your device

    Cookies, device identifiers or other information can be stored or accessed on your device for the purposes indicated above.

  • Personalised ads and content, ad and content measurement, audience insights, and products development

    Ads and content can be personalised based on a profile. More data can be added to better personalise ads and content. Ad and content performance can be measured. Insights about the audience who saw the ads and content can be derived. Such data can be used to develop or improve user’s experience, systems and software.

By clicking ‘I Agree’ you will allow the use of indicated cookies, device identifiers, web beacons or other similar technologies. Your settings can be changed in the browser on your device.

For certain purposes, legitimate interests may be relied on, rather than consent. You can read more about this in our Privacy and Cookie Policy.